Weather History for Imperial, NE

Change the Weather History Date:

Friday, May 24, 2013

  Actual Average Record
Temperature  
Mean Temperature 68 °F 63 °F  
Max Temperature 82 °F 76 °F 98 °F (1916)
Min Temperature 54 °F 50 °F 29 °F (1924)
Degree Days  
Heating Degree Days 0 4  
Month to date heating degree days 204 178  
Cooling Degree Days 3 2  
Month to date cooling degree days 43 26  
Year to date cooling degree days 45 27  
Growing Degree Days 17 (Base 50)    
Moisture  
Dew Point 55 °F    
Average Humidity 73    
Maximum Humidity 100    
Minimum Humidity 45    
Precipitation  
Precipitation T in 0.10 in 2.00 in (2011)
Sea Level Pressure  
Sea Level Pressure 29.97 in    
Wind  
Wind Speed 20 mph (SE)    
Max Wind Speed 35 mph    
Max Gust Speed 45 mph    
Visibility 9 miles    
Events Thunderstorm    
T = Trace of Precipitation, MM = Missing Value Source: NWS Daily Summary

Daily Weather History Graph

Daily Weather History Graph

Search for Another Location

Airport:

Trip Planner

Search our weather history database for the weather conditions in past years. The results will help you decide how hot, cold, wet, or windy it might be!

Date:

Astronomy

May. 24, 2013 Rise Set
Actual Time 5:22 AM MDT 8:04 PM MDT
Civil Twilight 4:50 AM MDT 8:36 PM MDT
Nautical Twilight 4:10 AM MDT 9:16 PM MDT
Astronomical Twilight 3:25 AM MDT 10:02 PM MDT
Moon 7:49 PM MDT (5/24) 4:56 AM MDT (5/24)
Length of Visible Light 15h 46m
Length of Day
14h 42m
Full, 100% of the Moon is Illuminated
May 24
Full
May 24
Full
May 31
Last Quarter
Jun 8
New
Jun 16
First Quarter

Hourly Weather History & Observations

Time (MDT) Temp. Heat Index Dew Point Humidity Pressure Visibility Wind Dir Wind Speed Gust Speed Precip Events Conditions
12:53 AM 57.9 °F - 50.0 °F 75% 30.06 in 10.0 mi SSE 25.3 mph 35.7 mph N/A   Overcast
1:53 AM 57.0 °F - 50.0 °F 77% 30.06 in 10.0 mi SSE 25.3 mph 33.4 mph N/A   Overcast
2:06 AM 57.2 °F - 50.0 °F 77% 30.10 in 10.0 mi SSE 25.3 mph 34.5 mph N/A   Overcast
2:32 AM 57.2 °F - 50.0 °F 77% 30.09 in 10.0 mi SSE 26.5 mph 34.5 mph N/A   Overcast
2:51 AM 57.2 °F - 50.0 °F 77% 30.09 in 10.0 mi SSE 24.2 mph 34.5 mph N/A   Overcast
2:53 AM 57.0 °F - 50.0 °F 77% 30.04 in 10.0 mi SSE 23.0 mph 34.5 mph N/A   Overcast
3:53 AM 55.9 °F - 51.1 °F 84% 30.02 in 10.0 mi SE 19.6 mph 28.8 mph N/A   Overcast
4:01 AM 55.4 °F - 51.8 °F 88% 30.07 in 10.0 mi SE 19.6 mph 27.6 mph N/A   Overcast
4:53 AM 55.0 °F - 52.0 °F 89% 30.02 in 5.0 mi SSE 20.7 mph - N/A   Overcast
5:02 AM 53.6 °F - 51.8 °F 94% 30.06 in 5.0 mi SE 18.4 mph - N/A   Overcast
5:53 AM 54.0 °F - 53.1 °F 97% 30.02 in 3.0 mi SE 21.9 mph 26.5 mph N/A   Overcast
6:33 AM 55.4 °F - 53.6 °F 94% 30.07 in 2.5 mi SSE 16.1 mph - N/A   Overcast
6:53 AM 55.0 °F - 54.0 °F 96% 30.04 in 4.0 mi SSE 15.0 mph - N/A   Overcast
7:53 AM 57.0 °F - 54.0 °F 89% 30.04 in 10.0 mi SSE 23.0 mph 31.1 mph N/A   Overcast
8:53 AM 57.9 °F - 54.0 °F 87% 30.04 in 8.0 mi SSE 19.6 mph 27.6 mph N/A   Overcast
9:30 AM 59.0 °F - 53.6 °F 82% 30.08 in 9.0 mi SSE 19.6 mph 28.8 mph N/A   Overcast
9:53 AM 60.1 °F - 54.0 °F 80% 30.04 in 9.0 mi South 21.9 mph 28.8 mph N/A   Overcast
10:48 AM 60.8 °F - 55.4 °F 82% 30.07 in 8.0 mi South 17.3 mph 27.6 mph N/A   Overcast
10:53 AM 61.0 °F - 55.0 °F 81% 30.03 in 8.0 mi South 18.4 mph - N/A   Overcast
11:53 AM 66.0 °F - 55.9 °F 70% 30.01 in 9.0 mi South 16.1 mph - N/A   Overcast
12:29 PM 69.8 °F - 57.2 °F 64% 30.03 in 10.0 mi SSE 17.3 mph 25.3 mph N/A   Overcast
12:53 PM 73.0 °F - 55.9 °F 55% 29.96 in 10.0 mi South 20.7 mph 29.9 mph N/A   Scattered Clouds
1:53 PM 77.0 °F - 55.9 °F 48% 29.93 in 10.0 mi South 19.6 mph 28.8 mph N/A   Partly Cloudy
2:53 PM 78.1 °F - 57.0 °F 48% 29.90 in 10.0 mi SSE 24.2 mph 31.1 mph N/A   Clear
3:53 PM 81.0 °F 81.1 °F 57.9 °F 45% 29.86 in 10.0 mi SE 27.6 mph 32.2 mph N/A   Clear
4:53 PM 79.0 °F - 57.0 °F 47% 29.83 in 10.0 mi ESE 20.7 mph 28.8 mph N/A Thunderstorm Partly Cloudy
5:11 PM 78.8 °F - 57.2 °F 47% 29.90 in 10.0 mi ESE 19.6 mph 28.8 mph N/A   Partly Cloudy
5:28 PM 78.8 °F - 55.4 °F 44% 29.89 in 10.0 mi ESE 17.3 mph 27.6 mph N/A Thunderstorm Scattered Clouds
5:53 PM 78.1 °F - 55.0 °F 45% 29.81 in 10.0 mi SE 18.4 mph 26.5 mph N/A Thunderstorm Partly Cloudy
6:14 PM 78.8 °F - 55.4 °F 44% 29.87 in 10.0 mi SE 16.1 mph - N/A Thunderstorm Thunderstorm
6:35 PM 78.8 °F - 53.6 °F 42% 29.87 in 10.0 mi SE 16.1 mph - N/A Thunderstorm Scattered Clouds
6:53 PM 77.0 °F - 54.0 °F 45% 29.81 in 10.0 mi SE 13.8 mph - N/A Thunderstorm Thunderstorm
7:53 PM 75.0 °F - 55.9 °F 51% 29.78 in 10.0 mi SSE 32.2 mph 41.4 mph 0.00 in Thunderstorm Thunderstorm
8:26 PM 71.6 °F - 60.8 °F 69% 29.90 in 10.0 mi ESE 17.3 mph 28.8 mph N/A   Partly Cloudy
8:53 PM 70.0 °F - 61.0 °F 73% 29.85 in 10.0 mi East 20.7 mph - N/A   Clear
9:53 PM 68.0 °F - 61.0 °F 78% 29.88 in 9.0 mi East 18.4 mph - N/A   Clear
10:53 PM 66.0 °F - 61.0 °F 84% 29.87 in 8.0 mi East 16.1 mph - N/A   Clear
11:53 PM 66.0 °F - 63.0 °F 90% 29.84 in 6.0 mi SE 20.7 mph - N/A   Clear